Portland, ME

9:52 PM EST on December 15, 2019 (GMT -0500)
Portland International

Weather History for KPWM - October, 2019

Change the Weather History Date:

Friday, October 11, 2019

  Actual Average Record
Temperature  
Mean Temperature 56 °F 50 °F  
Max Temperature 61 °F 60 °F 77 °F (1955)
Min Temperature 50 °F 40 °F 24 °F (1993)
Degree Days  
Heating Degree Days 10 15  
Month to date heating degree days 125 142  
Since 1 July heating degree days 287 363  
Cooling Degree Days 0 0  
Month to date cooling degree days 0 0  
Year to date cooling degree days 474 358  
Growing Degree Days 6 (Base 50)    
Moisture  
Dew Point 41 °F    
Average Humidity 62    
Maximum Humidity 77    
Minimum Humidity 39    
Precipitation  
Precipitation T in 0.16 in 2.68 in (1871)
Month to date precipitation 1.00 1.68  
Year to date precipitation 35.73 35.11  
Snow  
Snow 0.00 in 0.00 in 0.00 in (2002)
Month to date snowfall 0.0 0.0  
Since 1 July snowfall 0.0 0.0  
Since 1 September snowfall 0.0 0.0  
Snow Depth 0.00 in    
Sea Level Pressure  
Sea Level Pressure 30.24 in    
Wind  
Wind Speed 11 mph ()    
Max Wind Speed 22 mph    
Max Gust Speed 26 mph    
Visibility 10.0 miles    
Events Rain    
T = Trace of Precipitation, MM = Missing Value Source: Averaged Metar Reports

Daily Weather History Graph

Daily Weather History Graph

Search for Another Location

Airport or City:

Astronomy

Oct. 11, 2019 Rise Set
Actual Time 6:50 AM EDT 6:05 PM EDT
Civil Twilight 6:21 AM EDT 6:33 PM EDT
Nautical Twilight 5:48 AM EDT 7:06 PM EDT
Astronomical Twilight 5:14 AM EDT 7:40 PM EDT
Moon 5:38 PM EDT (10/11) 4:20 AM EDT (10/11)
Length of Visible Light 12h 12m
Length of Day
11h 14m
Waxing Gibbous, 96% of the Moon is Illuminated
Oct 11
Waxing Gibbous
Oct 13
Full
Oct 21
Last Quarter
Oct 27
New
Nov 4
First Quarter

Hourly Weather History & Observations

Time (EDT) Temp. Dew Point Humidity Pressure Visibility Wind Dir Wind Speed Gust Speed Precip Events Conditions
12:51 AM 52.0 °F 39.0 °F 61% 30.32 in 10.0 mi NNE 9.2 mph - N/A   Clear
1:51 AM 51.1 °F 39.9 °F 66% 30.31 in 10.0 mi NNE 10.4 mph - N/A   Clear
2:51 AM 51.1 °F 39.9 °F 66% 30.30 in 10.0 mi NNE 15.0 mph - N/A   Clear
3:51 AM 50.0 °F 39.0 °F 66% 30.31 in 10.0 mi NNE 13.8 mph - N/A   Clear
4:51 AM 50.0 °F 39.0 °F 66% 30.30 in 10.0 mi NNE 13.8 mph 21.9 mph N/A   Scattered Clouds
5:51 AM 50.0 °F 39.0 °F 66% 30.29 in 10.0 mi NNE 18.4 mph 23.0 mph N/A   Overcast
6:51 AM 50.0 °F 39.0 °F 66% 30.28 in 10.0 mi NNE 16.1 mph 24.2 mph N/A   Overcast
7:51 AM 50.0 °F 39.9 °F 68% 30.30 in 10.0 mi NNE 11.5 mph - N/A   Mostly Cloudy
8:51 AM 52.0 °F 41.0 °F 66% 30.29 in 10.0 mi NNE 15.0 mph 21.9 mph N/A   Overcast
9:51 AM 54.0 °F 42.1 °F 64% 30.28 in 10.0 mi NNE 12.7 mph - N/A   Overcast
10:51 AM 55.9 °F 42.1 °F 60% 30.26 in 10.0 mi NNE 11.5 mph - N/A   Mostly Cloudy
11:51 AM 57.9 °F 39.0 °F 49% 30.25 in 10.0 mi NE 10.4 mph 19.6 mph N/A   Mostly Cloudy
12:51 PM 59.0 °F 39.0 °F 48% 30.24 in 10.0 mi NNE 11.5 mph 23.0 mph N/A   Overcast
1:51 PM 60.1 °F 39.0 °F 46% 30.24 in 10.0 mi NE 9.2 mph - N/A   Overcast
2:51 PM 61.0 °F 36.0 °F 39% 30.21 in 10.0 mi NE 15.0 mph 20.7 mph N/A   Overcast
4:51 PM 61.0 °F 37.9 °F 42% 30.20 in 10.0 mi NE 12.7 mph - N/A   Overcast
5:51 PM 57.0 °F 45.0 °F 64% 30.20 in 10.0 mi East 8.1 mph - N/A   Overcast
6:51 PM 55.9 °F 46.0 °F 69% 30.20 in 10.0 mi East 12.7 mph - N/A   Overcast
7:51 PM 55.0 °F 46.0 °F 72% 30.19 in 10.0 mi East 11.5 mph - N/A   Overcast
8:51 PM 55.9 °F 44.1 °F 64% 30.18 in 10.0 mi ENE 19.6 mph 26.5 mph N/A   Overcast
9:51 PM 55.9 °F 44.1 °F 64% 30.17 in 10.0 mi ENE 16.1 mph 20.7 mph 0.00 in   Overcast
10:25 PM 55.0 °F 45.0 °F 69% 30.16 in 10.0 mi NE 10.4 mph 23.0 mph 0.00 in   Overcast
10:51 PM 54.0 °F 46.9 °F 77% 30.15 in 9.0 mi ENE 13.8 mph - 0.00 in Rain Light Rain
11:51 PM 54.0 °F 46.9 °F 77% 30.12 in 10.0 mi ENE 12.7 mph - 0.00 in   Overcast